This demonstration page uses our WeatherBlox Daily Observations layout. Learn more.

Left ArrowRight Arrow

39.29038, -76.61219

Hourly Observations for September 25, 2022

Temp ( °F °C ) Dew Point ( °F °C ) Humidity (%) Winds ( mph kmh ) Pressure ( in mb ) Visibility ( mi km ) Precip ( " mm )
12:54 am 00:54 undefined 63 17.2 48 8.9 58 58 undefined N/A 29.91 1013 N/A 0.00 0.00
1:54 am 01:54 undefined 64 17.8 49 9.4 58 58 undefined N/A 29.88 1012 N/A 0.00 0.00
2:54 am 02:54 undefined 64 17.8 49 9.4 58 58 undefined N/A 29.87 1011 N/A 0.00 0.00
3:54 am 03:54 undefined 63 17.2 50 10 63 63 undefined N/A 29.85 1011 N/A 0.00 0.00
4:54 am 04:54 undefined 63 17.2 51 10.6 65 65 undefined N/A 29.84 1011 N/A 0.00 0.00
5:54 am 05:54 undefined 62 16.7 52 11.1 70 70 undefined N/A 29.83 1010 N/A 0.00 0.00
6:54 am 06:54 undefined 60 15.6 52 11.1 75 75 undefined N/A 29.81 1010 N/A 0.00 0.00
7:54 am 07:54 undefined 61 16.1 52 11.1 72 72 undefined N/A 29.81 1010 N/A 0.00 0.00
8:54 am 08:54 undefined 62 16.7 53 11.7 72 72 undefined N/A 29.79 1009 N/A 0.00 0.00
9:54 am 09:54 undefined 64 17.8 53 11.7 67 67 undefined N/A 29.78 1008 N/A 0.00 0.00
10:54 am 10:54 undefined 67 19.4 54 12.2 63 63 undefined N/A 29.77 1008 N/A 0.00 0.00
11:54 am 11:54 undefined 69 20.6 55 12.8 61 61 undefined N/A 29.75 1007 N/A 0.00 0.00
12:54 pm 12:54 undefined 72 22.2 57 13.9 59 59 undefined N/A 29.71 1006 N/A 0.00 0.00
1:54 pm 13:54 undefined 78 25.6 57 13.9 48 48 undefined N/A 29.68 1005 N/A 0.00 0.00
2:54 pm 14:54 undefined 77 25 57 13.9 50 50 undefined N/A 29.70 1006 N/A 0.00 0.00
3:54 pm 15:54 undefined 72 22.2 62 16.7 71 71 undefined N/A 29.67 1005 N/A 0.15 3.81
4:54 pm 16:54 undefined 71 21.7 62 16.7 73 73 undefined N/A 29.65 1004 N/A 0.00 0.00
5:54 pm 17:54 undefined 72 22.2 63 17.2 73 73 undefined N/A 29.63 1003 N/A 0.00 0.00
6:54 pm 18:54 undefined 71 21.7 62 16.7 73 73 undefined N/A 29.63 1003 N/A 0.00 0.00
7:54 pm 19:54 undefined 70 21.1 63 17.2 78 78 undefined N/A 29.62 1003 N/A 0.00 0.00
8:54 pm 20:54 undefined 70 21.1 61 16.1 73 73 undefined N/A 29.65 1004 N/A 0.00 0.00
9:54 pm 21:54 undefined 71 21.7 58 14.4 63 63 undefined N/A 29.68 1005 N/A 0.00 0.00
10:54 pm 22:54 undefined 70 21.1 57 13.9 63 63 undefined N/A 29.70 1006 N/A 0.00 0.00
11:54 pm 23:54 undefined 68 20 56 13.3 65 65 undefined N/A 29.71 1006 N/A 0.00 0.00

Powered by AerisWeather